When you browse on this site, cookies collect data to enhance your experience and personalize the content and advertising you see.
Visit our Privacy Policy to learn more. By continuing to use the site, you agree to this use of cookies and data.
  • în România
  • Lista ţărilor
  • Pe 7 zile
  • Temperatura apei
  • Hartă satelitară
  • Meteo pe hartă
  • Widget-uri
  • user-avatar
    Intrare

    Meteo pe oră la Achenheim

    Astăzi, 17 Februarie, Duminică

    Timp Temperatura Precipitaţii Vânt Presiune Umiditate
    00:00 +9°C° 0 mm 1 m/s 754 mmHg 62%
    01:00 +8°C° 0 mm 2 m/s 754 mmHg 59%
    02:00 +7°C° 0 mm 2 m/s 754 mmHg 59%
    03:00 +8°C° 0 mm 1 m/s 754 mmHg 60%
    04:00 +8°C° 0 mm 1 m/s 754 mmHg 60%
    05:00 +7°C° 0 mm 1 m/s 754 mmHg 61%
    06:00 +7°C° 0 mm 1 m/s 754 mmHg 62%
    07:00 +7°C° 0 mm 1 m/s 754 mmHg 63%
    08:00 +8°C° 0 mm 1 m/s 753 mmHg 60%
    09:00 +9°C° 0 mm 1 m/s 753 mmHg 58%
    10:00 +11°C° 0 mm 1 m/s 753 mmHg 55%
    11:00 +13°C° 0 mm 2 m/s 753 mmHg 49%
    12:00 +14°C° 0 mm 2 m/s 753 mmHg 43%
    13:00 +16°C° 0 mm 2 m/s 752 mmHg 37%
    14:00 +16°C° 0 mm 2 m/s 752 mmHg 39%
    15:00 +17°C° 0 mm 2 m/s 752 mmHg 40%
    16:00 +18°C° 0 mm 1 m/s 751 mmHg 42%
    17:00 +15°C° 0 mm 1 m/s 751 mmHg 46%
    18:00 +13°C° 0 mm 1 m/s 751 mmHg 51%
    19:00 +11°C° 0 mm 1 m/s 751 mmHg 55%
    20:00 +10°C° 0 mm 1 m/s 751 mmHg 57%
    21:00 +10°C° 0 mm 1 m/s 751 mmHg 58%
    22:00 +9°C° 0 mm 1 m/s 751 mmHg 59%
    23:00 +9°C° 0 mm 1 m/s 751 mmHg 59%

    Mâine, 18 Februarie, Luni

    Timp Temperatura Precipitaţii Vânt Presiune Umiditate
    00:00 +8°C° 0 mm 1 m/s 751 mmHg 60%
    01:00 +8°C° 0 mm 1 m/s 752 mmHg 60%
    02:00 +8°C° 0 mm 1 m/s 751 mmHg 61%
    03:00 +7°C° 0 mm 1 m/s 751 mmHg 61%
    04:00 +7°C° 0 mm 1 m/s 751 mmHg 62%
    05:00 +7°C° 0 mm 1 m/s 751 mmHg 63%
    06:00 +6°C° 0 mm 1 m/s 751 mmHg 64%
    07:00 +6°C° 0 mm 1 m/s 751 mmHg 65%
    08:00 +8°C° 0 mm 1 m/s 751 mmHg 62%
    09:00 +9°C° 0 mm 1 m/s 751 mmHg 60%
    10:00 +10°C° 0 mm 1 m/s 751 mmHg 57%
    11:00 +12°C° 0 mm 1 m/s 751 mmHg 52%
    12:00 +13°C° 0 mm 1 m/s 750 mmHg 46%
    13:00 +15°C° 0 mm 1 m/s 750 mmHg 41%
    14:00 +15°C° 0 mm 1 m/s 750 mmHg 42%
    15:00 +16°C° 0 mm 1 m/s 749 mmHg 43%
    16:00 +16°C° 0 mm 1 m/s 749 mmHg 44%
    17:00 +14°C° 0 mm 1 m/s 749 mmHg 49%
    18:00 +12°C° 0 mm 1 m/s 749 mmHg 53%
    19:00 +10°C° 0 mm 1 m/s 750 mmHg 58%
    20:00 +10°C° 0 mm 1 m/s 750 mmHg 61%
    21:00 +9°C° 0 mm 1 m/s 750 mmHg 64%
    22:00 +8°C° 0 mm 1 m/s 750 mmHg 66%
    23:00 +8°C° 0 mm 1 m/s 750 mmHg 67%

    Poimâine, 19 Februarie, Marţi

    Timp Temperatura Precipitaţii Vânt Presiune Umiditate
    00:00 +7°C° 0 mm 2 m/s 750 mmHg 67%
    01:00 +6°C° 0 mm 2 m/s 750 mmHg 68%
    02:00 +6°C° 0 mm 2 m/s 750 mmHg 69%
    03:00 +6°C° 0 mm 2 m/s 750 mmHg 71%
    04:00 +5°C° 0 mm 2 m/s 750 mmHg 73%
    05:00 +5°C° 0 mm 2 m/s 750 mmHg 74%
    06:00 +5°C° 0 mm 2 m/s 751 mmHg 76%
    07:00 +5°C° 0 mm 2 m/s 751 mmHg 78%
    08:00 +6°C° 0 mm 2 m/s 751 mmHg 75%
    09:00 +7°C° 0 mm 2 m/s 751 mmHg 72%
    10:00 +8°C° 0 mm 2 m/s 752 mmHg 68%
    11:00 +10°C° 0 mm 2 m/s 752 mmHg 66%
    12:00 +12°C° 0 mm 2 m/s 751 mmHg 64%
    13:00 +12°C° 0 mm 3 m/s 751 mmHg 62%
    14:00 +13°C° 0 mm 2 m/s 751 mmHg 64%
    15:00 +13°C° 0 mm 2 m/s 751 mmHg 65%
    16:00 +13°C° 0 mm 2 m/s 751 mmHg 66%
    17:00 +12°C° 0 mm 2 m/s 751 mmHg 72%
    18:00 +11°C° 0 mm 1 m/s 751 mmHg 79%
    19:00 +10°C° 0 mm 1 m/s 752 mmHg 85%
    20:00 +9°C° 0 mm 1 m/s 752 mmHg 86%
    21:00 +8°C° 0 mm 0 m/s 752 mmHg 88%
    22:00 +8°C° 0 mm 0 m/s 752 mmHg 90%
    23:00 +8°C° 0 mm 0 m/s 752 mmHg 90%

    20 Februarie, Miercuri

    Timp Temperatura Precipitaţii Vânt Presiune Umiditate
    00:00 +7°C° 0 mm 0 m/s 753 mmHg 91%
    01:00 +7°C° 0 mm 0 m/s 753 mmHg 91%
    02:00 +7°C° 0 mm 0 m/s 753 mmHg 91%
    03:00 +6°C° 0 mm 0 m/s 753 mmHg 92%
    04:00 +6°C° 0 mm 0 m/s 753 mmHg 92%
    05:00 +6°C° 0 mm 0 m/s 753 mmHg 91%
    06:00 +7°C° 0 mm 1 m/s 753 mmHg 91%
    07:00 +7°C° 0 mm 1 m/s 753 mmHg 90%
    08:00 +8°C° 0 mm 1 m/s 753 mmHg 86%
    09:00 +9°C° 0 mm 1 m/s 754 mmHg 81%
    10:00 +10°C° 0 mm 1 m/s 754 mmHg 77%
    11:00 +11°C° 0 mm 1 m/s 754 mmHg 73%
    12:00 +12°C° 0 mm 1 m/s 754 mmHg 68%
    13:00 +13°C° 0 mm 1 m/s 754 mmHg 64%
    14:00 +13°C° 0 mm 1 m/s 754 mmHg 63%
    15:00 +13°C° 0 mm 1 m/s 754 mmHg 62%
    16:00 +13°C° 0 mm 1 m/s 754 mmHg 61%
    17:00 +12°C° 0 mm 1 m/s 754 mmHg 67%
    18:00 +10°C° 0 mm 0 m/s 754 mmHg 72%
    19:00 +9°C° 0 mm 0 m/s 754 mmHg 78%
    20:00 +8°C° 0 mm 0 m/s 755 mmHg 80%
    21:00 +8°C° 0 mm 0 m/s 755 mmHg 81%
    22:00 +7°C° 0 mm 0 m/s 755 mmHg 83%
    23:00 +8°C° 0 mm 1 m/s 755 mmHg 84%

    21 Februarie, Joi

    Timp Temperatura Precipitaţii Vânt Presiune Umiditate
    00:00 +8°C° 0 mm 1 m/s 755 mmHg 85%
    01:00 +7°C° 0 mm 1 m/s 755 mmHg 86%
    02:00 +7°C° 0 mm 1 m/s 756 mmHg 86%
    03:00 +7°C° 0 mm 1 m/s 756 mmHg 87%
    04:00 +7°C° 0 mm 1 m/s 756 mmHg 87%
    05:00 +6°C° 0 mm 1 m/s 756 mmHg 87%
    06:00 +6°C° 0 mm 1 m/s 756 mmHg 88%
    07:00 +6°C° 0 mm 1 m/s 756 mmHg 88%
    08:00 +7°C° 0 mm 1 m/s 756 mmHg 83%
    09:00 +9°C° 0 mm 1 m/s 757 mmHg 78%
    10:00 +10°C° 0 mm 1 m/s 757 mmHg 74%
    11:00 +11°C° 0 mm 1 m/s 757 mmHg 69%
    12:00 +12°C° 0 mm 1 m/s 757 mmHg 64%
    13:00 +14°C° 0 mm 1 m/s 757 mmHg 60%
    14:00 +14°C° 0 mm 1 m/s 757 mmHg 59%
    15:00 +14°C° 0 mm 1 m/s 757 mmHg 58%
    16:00 +14°C° 0 mm 1 m/s 756 mmHg 57%
    17:00 +12°C° 0 mm 0 m/s 757 mmHg 63%
    18:00 +11°C° 0 mm 0 m/s 757 mmHg 69%
    19:00 +9°C° 0 mm 0 m/s 757 mmHg 75%
    20:00 +9°C° 0 mm 0 m/s 758 mmHg 78%
    21:00 +8°C° 0 mm 0 m/s 758 mmHg 80%
    22:00 +8°C° 0 mm 0 m/s 758 mmHg 82%
    23:00 +7°C° 0 mm 0 m/s 759 mmHg 84%

    22 Februarie, Vineri

    Timp Temperatura Precipitaţii Vânt Presiune Umiditate
    00:00 +7°C° 0 mm 0 m/s 759 mmHg 85%
    01:00 +7°C° 0 mm 0 m/s 759 mmHg 86%
    02:00 +6°C° 0 mm 0 m/s 759 mmHg 87%
    03:00 +6°C° 0 mm 0 m/s 759 mmHg 87%
    04:00 +6°C° 0 mm 0 m/s 759 mmHg 88%
    05:00 +6°C° 0 mm 0 m/s 759 mmHg 89%
    06:00 +5°C° 0 mm 0 m/s 759 mmHg 89%
    07:00 +5°C° 0 mm 0 m/s 759 mmHg 90%
    08:00 +7°C° 0 mm 0 m/s 759 mmHg 85%
    09:00 +8°C° 0 mm 0 m/s 760 mmHg 81%
    10:00 +9°C° 0 mm 0 m/s 760 mmHg 77%
    11:00 +11°C° 0 mm 1 m/s 759 mmHg 72%
    12:00 +13°C° 0 mm 1 m/s 759 mmHg 68%
    13:00 +14°C° 0 mm 2 m/s 759 mmHg 63%
    14:00 +14°C° 0 mm 2 m/s 759 mmHg 63%
    15:00 +14°C° 0 mm 2 m/s 759 mmHg 63%
    16:00 +14°C° 0 mm 2 m/s 759 mmHg 63%
    17:00 +13°C° 0 mm 2 m/s 759 mmHg 69%
    18:00 +12°C° 0 mm 2 m/s 759 mmHg 75%
    19:00 +9°C° 0 mm 2 m/s 759 mmHg 82%
    20:00 +9°C° 0 mm 2 m/s 759 mmHg 84%
    21:00 +8°C° 0 mm 2 m/s 759 mmHg 86%
    22:00 +8°C° 0 mm 2 m/s 759 mmHg 88%
    23:00 +7°C° 0 mm 2 m/s 759 mmHg 90%
    Arată mai mult